Wind_Speed
6 4 2 5 6 6 6 7 8 5 6 5 2 2 1 2 4 5 5 5 1 1 6 10 9 11 10 7 7 12 12 4 8 13 17 18 19 21 24 27 27 28 27 26 26 26 26 25 25 25 25 24 23 23 23 23 22 21 22 23 22 23 23 23 24 24 26 28 29 28 30 31 30 29 29 29 28 26 26 26 27 27 26 25 26 26
4 5 5 7 8 8 7 6 7 4 4 3 1 1 3 1 4 6 4 6 0 4 5 6 7 11 7 3 10 14 12 9 9 1 10 14 17 20 22 22 22 23 25 26 26 27 27 25 24 25 26 26 25 25 24 23 21 20 22 24 24 24 23 23 25 25 25 27 28 28 29 30 31 30 30 29 28 27 27 27 28 27 25 26 27 27
2 4 8 8 6 5 4 4 4 3 4 3 1 1 3 2 4 6 4 6 1 3 4 3 6 10 3 7 9 11 8 12 20 17 7 4 9 11 13 16 16 17 21 24 26 28 27 25 24 25 27 27 26 25 24 23 21 21 23 24 23 24 22 22 25 25 23 24 25 27 27 29 31 31 29 29 28 27 27 27 27 25 25 26 28 28
1 5 8 7 7 6 3 3 6 3 2 3 3 3 2 2 1 3 4 6 3 1 2 5 4 6 4 7 6 8 11 18 25 25 23 15 4 3 9 14 15 16 20 23 25 27 27 25 25 26 28 28 27 27 26 25 24 23 24 22 22 22 21 22 24 24 23 24 25 26 27 28 30 31 29 28 28 27 26 26 26 24 25 27 29 29
4 6 4 8 8 7 5 3 6 4 1 1 4 5 3 3 3 4 4 6 5 5 2 6 4 4 5 7 5 8 13 20 25 27 29 26 18 8 1 6 13 19 24 26 27 28 27 26 26 27 28 28 28 28 28 27 25 24 23 22 22 21 21 22 23 23 24 26 28 29 29 29 30 31 30 29 30 29 27 27 26 25 27 28 29 29
7 6 3 7 5 6 6 4 5 6 3 3 4 8 7 6 5 4 3 4 5 5 3 6 5 1 4 7 5 7 10 15 19 22 24 26 25 20 15 7 7 16 21 24 25 27 27 26 26 27 28 28 28 29 28 27 24 22 21 20 21 21 22 22 23 24 26 28 30 32 32 31 32 32 31 32 32 30 28 27 26 27 29 29 28 28
4 4 6 7 6 6 6 4 5 7 5 1 5 9 8 6 5 3 2 4 3 1 2 4 6 3 3 6 6 7 8 12 14 17 19 23 25 24 23 17 8 5 10 14 18 24 26 27 28 28 29 29 29 27 26 25 24 22 19 18 20 21 22 24 25 26 28 29 31 33 33 32 33 32 31 31 30 29 28 26 26 26 27 28 28 27
3 5 6 6 6 6 5 4 6 8 7 3 7 6 7 7 7 5 5 4 2 2 3 4 4 4 2 4 6 7 7 11 13 14 16 19 22 22 23 21 17 12 6 5 8 15 20 23 25 25 25 24 25 26 26 26 23 20 19 19 20 21 23 25 27 29 29 30 31 32 32 32 33 32 30 29 28 27 27 27 27 26 26 28 28 27
3 6 6 6 5 4 5 6 8 10 6 7 8 6 7 7 7 6 6 3 1 2 2 7 3 5 2 5 6 7 6 9 11 12 12 16 20 22 24 24 21 17 12 9 6 5 9 14 16 16 17 16 16 17 20 25 22 17 18 19 20 22 25 26 28 30 30 30 30 31 31 31 32 31 30 29 27 27 27 28 29 28 27 28 28 27
1 5 7 7 5 4 7 7 10 12 6 6 4 4 4 3 4 4 5 4 3 3 4 7 1 5 1 5 6 5 4 5 7 9 10 15 20 21 24 25 24 20 15 12 9 7 3 7 12 14 16 16 13 9 9 11 19 17 16 19 21 22 24 27 29 30 30 31 31 31 30 30 30 30 31 30 27 27 28 29 30 29 28 28 28 27
3 2 3 5 6 8 8 5 10 15 9 4 6 5 5 5 5 4 3 4 4 0 6 7 1 5 1 3 3 2 2 3 5 7 9 15 20 21 22 24 24 23 20 16 12 9 7 2 7 12 13 16 18 13 12 7 13 15 16 20 22 22 22 25 27 29 30 31 32 31 30 28 26 25 28 30 27 27 28 29 29 28 28 28 27 26
5 2 2 5 11 9 4 3 6 11 6 6 5 4 4 2 4 4 4 4 4 3 6 3 4 8 3 2 1 4 5 5 6 7 9 13 17 19 21 22 24 24 23 21 16 13 12 9 3 4 6 9 13 16 14 13 15 14 16 20 23 24 23 21 23 26 27 29 32 30 25 24 23 21 24 26 25 27 27 27 27 27 27 27 26 25
3 4 3 4 10 8 6 3 2 2 4 5 4 5 5 1 2 1 3 1 3 3 3 3 4 5 1 1 3 7 7 7 9 10 11 14 16 18 19 21 22 24 24 23 20 18 16 14 13 11 10 10 10 11 14 18 20 17 17 20 23 24 24 22 23 25 26 28 30 27 22 22 22 21 21 22 23 27 27 25 26 27 27 27 27 26
3 5 4 2 5 6 8 5 3 2 3 5 5 5 5 2 2 2 2 0 2 2 2 3 2 3 1 1 5 8 8 9 12 14 14 16 17 17 18 19 20 22 23 22 21 20 18 17 15 14 12 12 11 10 10 13 16 19 20 22 23 23 22 22 22 24 27 28 27 25 23 22 22 22 22 21 22 24 25 25 24 26 27 27 27 26
2 3 3 3 3 5 7 6 7 6 4 4 4 6 5 4 4 3 3 3 3 2 2 2 3 3 3 0 3 8 11 13 15 15 16 17 17 17 19 19 20 21 22 21 21 20 19 17 15 13 10 9 9 7 7 10 12 16 20 21 22 21 20 21 20 19 22 22 23 25 25 24 23 21 20 20 21 22 23 23 22 24 26 27 27 26
4 4 7 4 3 4 6 5 6 8 3 1 2 6 3 5 5 3 3 5 5 2 2 3 3 1 2 2 4 7 13 14 15 16 16 16 17 18 19 20 20 21 21 20 20 20 19 17 15 14 12 10 9 6 4 7 10 13 16 19 20 19 18 20 20 18 16 15 18 23 26 25 24 22 20 20 22 21 20 21 21 21 25 27 26 25
4 4 6 3 3 3 6 6 4 5 4 0 2 4 3 4 7 5 2 1 3 4 1 1 3 2 2 2 4 4 11 11 12 14 14 13 14 16 17 17 17 18 19 19 18 17 16 16 15 14 14 13 12 9 7 6 7 8 10 14 16 18 17 18 19 19 16 15 17 22 24 25 24 22 21 20 21 20 18 18 18 19 23 27 25 23
4 2 6 1 3 4 1 5 2 2 5 4 2 5 2 3 5 4 2 2 3 4 1 2 3 3 2 0 1 4 9 10 10 11 11 12 13 13 13 14 15 16 17 16 15 14 14 14 14 13 12 13 14 12 10 7 6 6 8 10 12 14 14 14 17 16 14 14 17 18 19 24 25 22 21 20 19 19 18 17 17 18 23 26 24 21
3 1 6 2 1 2 4 6 3 5 4 6 4 3 4 2 1 1 2 2 2 3 1 3 2 1 1 0 2 5 8 9 9 9 9 10 11 11 12 13 14 17 18 18 17 16 16 16 16 14 12 11 13 14 13 10 7 7 8 11 11 11 11 12 15 15 14 13 14 15 16 21 23 21 20 19 18 19 19 17 17 19 23 24 22 20
3 2 4 5 3 1 4 4 1 4 5 5 3 3 2 3 4 3 2 3 4 3 2 2 2 1 1 1 3 7 8 9 9 8 7 9 10 11 11 12 14 16 19 19 19 19 19 18 17 16 15 14 14 15 14 12 10 9 9 10 11 11 10 10 12 14 15 15 15 15 17 19 21 20 20 19 18 19 20 18 18 21 23 23 22 21
3 3 1 5 6 2 3 3 1 3 1 2 4 4 3 2 2 2 1 2 4 4 3 3 1 2 2 1 5 8 8 9 9 7 8 9 10 10 11 11 13 15 18 19 20 20 20 19 19 17 16 15 14 14 14 13 12 11 11 12 12 13 12 11 12 13 14 16 16 17 18 20 21 21 21 20 20 20 19 19 20 23 24 24 23 22
2 2 2 2 4 4 3 4 3 3 5 4 3 2 1 1 3 4 1 1 2 4 4 5 3 2 2 2 5 8 8 9 10 9 9 9 9 9 9 11 13 16 18 19 19 20 20 20 20 19 18 16 15 15 14 14 13 12 11 12 12 12 12 13 13 13 13 14 16 17 19 22 23 24 24 23 21 20 20 20 21 24 26 27 25 24
3 4 4 3 2 2 1 3 3 5 9 7 4 2 2 2 4 5 3 3 3 3 2 4 3 1 3 4 6 10 10 11 12 12 10 8 7 8 9 10 13 16 16 17 18 19 20 21 21 20 19 18 17 17 16 15 15 14 13 13 13 12 12 12 13 13 12 14 16 18 21 24 24 25 27 25 23 22 21 22 23 25 27 28 27 25
2 4 4 2 2 3 4 4 5 7 7 7 5 3 3 2 2 4 5 4 3 2 1 4 2 1 3 5 8 11 13 13 14 12 9 7 6 8 9 10 12 15 17 17 18 19 20 21 22 21 21 21 20 19 19 18 16 15 15 15 15 15 14 12 13 13 13 15 17 17 20 23 22 22 26 27 25 22 22 23 23 24 25 27 27 26
1 2 4 4 2 4 5 5 6 6 5 4 3 4 4 3 3 3 2 3 3 2 3 5 2 2 4 6 8 10 12 13 14 11 9 7 7 8 9 10 12 15 17 19 19 20 21 22 23 23 23 22 22 22 21 21 19 18 17 17 16 16 16 15 14 13 15 17 17 17 18 19 19 19 22 25 24 21 22 23 23 24 25 26 28 28
3 2 3 5 4 3 2 2 2 1 2 3 3 5 6 5 4 2 2 4 2 1 3 4 3 4 6 6 7 8 9 10 11 11 10 9 9 9 10 12 13 15 17 19 20 20 21 22 23 23 23 22 23 23 23 23 23 22 21 21 19 18 17 17 15 14 15 16 17 17 18 18 17 17 18 21 21 19 19 23 25 26 26 27 28 27
5 3 2 5 6 6 5 4 3 2 4 2 3 6 7 4 4 4 4 2 2 3 3 1 6 8 7 6 7 8 7 8 9 10 10 10 10 10 11 13 15 17 18 19 21 21 21 22 23 23 23 23 24 24 24 25 25 25 24 24 23 22 20 19 17 16 15 15 16 17 17 18 18 17 18 20 20 17 16 20 24 26 26 27 28 26
5 3 3 6 7 4 5 5 4 5 7 5 4 6 7 6 6 6 5 2 4 4 1 2 8 9 6 6 7 7 7 7 8 10 11 10 11 11 12 14 16 18 19 21 22 22 22 22 23 23 24 25 25 25 26 26 26 27 26 26 26 25 24 22 20 19 17 16 16 16 16 17 17 16 17 19 19 17 15 17 23 25 26 27 27 26
6 3 3 7 10 8 8 9 10 11 9 8 9 7 7 9 10 8 5 2 4 4 3 7 10 8 6 7 7 7 8 8 9 11 12 11 11 12 14 16 17 18 20 22 23 23 24 24 23 24 25 26 27 27 27 27 27 27 28 28 29 28 27 26 25 23 21 18 17 16 16 17 17 16 16 17 19 18 16 17 22 25 26 28 28 27
4 3 3 8 11 9 7 8 11 12 11 10 11 9 9 11 11 10 8 8 9 8 6 11 13 9 5 6 8 10 11 10 11 13 13 12 12 13 15 17 17 18 20 21 22 23 23 24 24 24 25 26 26 27 27 27 28 28 28 29 30 30 30 29 28 27 25 22 19 18 17 17 16 16 16 17 19 20 18 19 23 26 27 29 29 27
5 3 1 6 8 5 5 7 10 12 13 12 10 8 7 9 9 8 7 8 10 10 9 12 12 7 5 7 11 12 12 13 14 13 13 13 13 14 15 16 17 18 19 19 21 21 22 23 23 24 25 25 25 25 25 25 25 26 26 27 29 30 30 29 28 28 27 25 23 21 19 19 18 16 15 16 18 21 20 20 25 28 29 30 30 28
5 4 1 4 5 2 2 5 9 12 14 12 9 8 7 6 5 5 5 4 4 7 9 9 6 4 4 9 12 12 13 14 13 12 13 14 13 14 15 15 16 17 17 18 19 20 21 22 23 23 24 24 24 24 24 24 24 24 25 27 27 26 26 26 27 27 28 28 27 25 22 20 20 18 16 17 18 21 22 22 27 30 30 31 31 29
4 5 3 3 5 2 2 1 3 6 7 6 5 4 4 4 5 6 6 7 5 3 5 4 4 5 7 9 10 9 10 12 12 12 12 12 13 14 15 15 15 16 16 17 18 19 19 20 21 22 23 23 23 24 24 23 23 24 25 25 25 24 23 24 26 27 29 30 29 28 25 21 19 18 18 18 18 20 23 25 28 31 31 31 31 30
4 6 4 2 4 4 4 3 3 3 3 1 2 1 2 5 8 9 7 8 7 5 4 5 7 8 7 8 9 10 11 13 14 13 13 11 12 14 15 16 16 16 16 17 17 18 18 19 19 20 21 22 22 22 22 22 22 23 23 23 22 23 23 23 24 26 28 31 33 31 29 24 19 18 18 18 17 19 24 27 28 30 32 32 32 32
5 5 3 2 4 4 1 3 3 1 0 1 3 4 6 8 11 13 10 9 9 8 9 10 9 9 10 12 15 18 18 17 17 16 15 14 13 13 15 16 17 17 17 18 18 18 18 19 19 20 21 22 21 21 22 22 22 22 22 23 23 23 23 23 24 25 26 29 33 35 33 28 22 18 17 17 17 18 23 28 28 29 31 33 34 33
6 5 3 3 2 3 1 3 2 2 1 4 4 4 5 5 7 9 8 8 7 5 7 9 9 12 15 15 17 20 21 20 19 18 16 15 13 14 15 15 16 17 17 18 18 18 18 18 19 20 20 21 22 23 24 24 24 24 24 24 25 25 24 24 25 26 26 28 31 35 36 31 24 19 17 17 15 14 21 27 28 28 32 35 35 34
6 5 4 3 2 2 3 2 2 3 2 4 2 1 2 2 2 2 3 3 5 4 7 10 9 12 14 14 17 19 18 17 16 14 14 15 13 12 12 13 14 15 15 16 16 16 16 16 17 19 20 21 23 24 25 25 26 26 26 26 26 25 25 25 26 26 27 28 29 32 36 34 27 19 15 15 13 14 21 28 30 29 32 37 36 35
6 4 5 4 2 1 4 3 3 1 2 2 2 2 3 4 3 1 3 3 3 4 9 13 10 12 14 14 16 15 9 8 7 6 9 13 12 11 11 11 12 13 14 14 15 15 16 16 16 17 19 21 23 24 24 25 25 26 28 28 27 27 26 27 27 26 26 26 26 27 31 35 33 24 14 9 9 15 19 25 29 30 33 37 39 37
9 5 5 6 3 2 4 3 2 2 1 1 1 1 4 5 1 1 2 2 1 4 8 15 14 14 17 16 15 10 2 3 2 1 7 11 11 11 12 12 13 13 14 14 15 16 16 17 17 17 18 20 22 23 23 23 24 25 27 27 27 28 28 28 28 27 25 25 23 22 24 29 33 32 22 9 3 10 14 19 27 32 35 38 39 39
7 5 4 5 4 3 3 2 1 1 1 1 1 3 5 4 2 2 1 2 2 3 6 15 16 16 17 16 11 3 2 3 6 5 8 11 11 12 13 13 14 13 14 14 14 15 16 17 19 19 20 20 20 20 21 22 23 24 25 26 26 27 28 28 27 26 24 22 21 20 20 23 28 32 30 21 11 7 9 13 21 31 36 38 40 41
4 4 3 4 4 4 4 2 1 0 1 0 3 5 5 2 2 2 1 3 5 4 6 13 15 15 14 11 7 5 7 11 14 12 12 12 12 13 14 14 14 13 14 14 14 14 15 17 19 20 20 20 20 20 20 22 23 24 24 24 25 26 26 26 26 26 24 22 21 19 20 20 21 25 29 29 23 15 12 12 16 25 33 36 39 42
2 2 2 3 3 3 3 2 1 0 0 2 4 4 3 2 2 2 4 7 9 8 8 11 13 12 10 9 12 17 19 18 17 15 13 13 13 14 13 13 13 14 14 15 15 15 16 16 17 18 20 20 21 21 21 23 25 25 24 24 24 23 23 23 25 25 25 25 23 22 21 21 18 17 19 24 27 26 22 18 18 22 28 32 34 37
1 2 1 2 2 2 3 3 2 2 2 4 3 2 3 1 4 8 11 11 10 11 12 12 12 12 13 17 22 23 21 17 15 13 12 11 12 13 13 14 15 15 16 17 17 18 18 18 18 18 19 19 20 21 22 24 26 25 24 23 22 20 19 20 22 23 25 25 25 23 22 22 20 16 14 15 19 23 25 22 20 19 22 25 27 29
0 1 1 2 1 1 2 1 1 1 4 4 1 3 4 7 12 16 16 14 12 13 15 16 15 16 21 25 25 21 18 16 13 12 11 11 12 14 16 17 18 18 17 17 18 18 19 20 20 20 19 18 18 20 22 25 26 25 23 22 21 20 18 18 18 20 23 25 25 24 22 21 21 20 17 14 12 13 18 21 20 19 19 20 22 24
1 4 5 3 2 3 4 3 3 6 8 8 11 13 13 15 16 16 17 18 16 16 17 19 21 22 24 25 22 18 16 14 12 12 12 13 15 17 18 18 18 16 15 14 14 14 16 16 16 17 17 17 17 18 21 23 25 25 24 21 19 18 18 17 17 18 20 23 25 24 22 19 20 20 20 19 16 13 14 17 18 18 18 18 18 20
4 7 6 5 5 6 8 8 8 9 12 14 16 16 16 16 15 15 17 18 18 18 19 21 23 23 21 20 18 17 15 14 13 14 14 15 17 17 15 14 12 11 11 10 10 10 10 11 13 14 15 15 15 16 18 21 23 24 24 21 18 16 16 17 18 18 19 21 23 24 23 20 18 17 17 19 19 18 17 16 15 15 14 14 14 13
2 5 5 3 4 3 4 6 8 9 11 12 14 15 15 15 16 16 18 19 20 21 21 20 21 20 17 16 16 16 15 15 15 16 15 15 14 12 10 10 9 10 10 10 10 10 9 9 12 14 14 15 15 15 16 18 20 22 22 20 18 16 15 15 17 19 19 20 20 21 23 23 20 17 15 15 15 16 16 16 16 15 14 14 14 13
3 8 6 3 3 4 5 7 11 12 12 12 14 16 17 17 18 19 20 21 21 20 20 19 18 17 16 15 15 16 16 16 16 15 14 12 11 10 9 10 10 10 10 9 10 11 10 8 9 11 13 14 14 14 15 15 17 19 21 19 18 16 15 15 16 18 19 19 19 18 20 22 22 21 19 16 14 14 14 14 13 13 14 13 12 13
6 6 4 4 6 7 7 10 13 12 10 9 12 16 18 19 21 22 22 22 21 20 19 18 16 17 17 17 17 17 17 16 14 13 12 11 10 10 9 9 8 8 9 9 10 10 8 7 8 9 12 13 14 14 14 13 14 16 19 20 19 18 16 14 14 16 18 19 18 17 16 18 20 21 21 19 17 16 15 15 13 12 12 12 10 9
7 5 5 8 7 3 4 10 10 7 7 9 14 17 18 19 21 21 20 19 18 17 17 17 17 17 16 16 16 15 14 14 13 11 10 9 9 8 7 7 7 8 10 11 11 10 8 7 8 9 11 13 14 13 12 12 12 13 16 19 19 19 17 13 12 15 18 19 18 16 14 14 15 17 18 19 19 18 16 16 16 15 13 12 10 8
9 8 5 5 5 6 12 14 12 10 12 15 18 19 19 19 20 20 20 19 18 18 19 19 19 18 16 15 14 13 12 12 11 10 9 8 7 6 6 6 7 9 12 13 13 12 9 8 8 9 11 12 13 12 11 11 11 11 13 16 17 19 18 15 12 14 17 18 18 16 14 13 12 13 14 15 16 17 16 16 16 17 16 14 11 8
Wind_Direction
171 172 187 189 195 197 195 176 176 175 144 147 123 114 247 277 287 280 264 279 274 169 248 232 230 244 252 275 317 357 1 303 215 197 197 199 201 204 206 208 207 205 206 210 212 211 212 209 207 208 208 207 204 202 204 208 212 216 217 212 203 203 213 221 228 229 225 221 219 219 221 222 223 224 224 226 227 225 224 225 223 216 210 209 206 206
145 182 223 212 202 190 186 180 177 163 122 120 118 299 302 266 271 274 270 299 212 153 254 238 224 247 252 1 359 6 17 8 0 306 208 210 209 210 212 212 209 205 205 209 211 210 211 209 208 209 209 208 206 203 204 210 217 217 211 206 202 204 210 218 223 224 220 217 216 220 222 221 222 223 224 226 225 222 222 225 225 217 210 207 204 206
117 219 238 214 187 152 140 133 138 146 126 113 131 205 283 258 282 291 292 308 307 156 257 200 192 248 271 66 30 11 27 27 23 29 21 277 230 226 224 219 212 201 203 210 209 208 209 209 210 210 210 209 206 204 206 211 216 214 208 206 204 206 212 217 219 220 219 216 216 221 224 223 222 223 226 227 225 223 224 227 226 218 210 206 204 207
142 247 234 184 144 136 144 114 107 102 108 114 157 189 244 239 289 291 289 312 332 14 237 153 165 275 343 65 46 15 39 42 33 38 40 37 43 236 233 229 221 205 205 212 209 206 207 208 211 212 210 209 206 205 207 211 213 212 210 207 206 209 213 218 219 218 219 220 221 225 228 228 226 226 228 227 225 224 226 228 226 218 212 207 204 207
221 256 203 137 140 160 170 143 122 131 245 255 204 202 190 192 221 233 272 318 349 354 43 107 74 327 0 39 20 356 35 42 31 33 36 34 42 60 126 228 226 215 211 212 210 206 207 209 211 212 212 210 209 207 209 213 214 212 212 210 211 214 215 220 223 220 219 222 225 227 227 228 228 228 229 227 225 224 224 225 223 216 212 208 205 208
247 257 150 119 140 165 164 181 161 155 195 292 238 216 204 204 233 253 313 0 32 2 0 90 85 294 344 29 14 338 23 38 28 32 32 26 33 41 41 52 196 211 213 216 216 211 210 212 213 214 215 215 215 214 213 214 215 214 214 215 219 221 220 221 223 219 218 219 222 224 223 223 223 223 225 224 224 224 224 225 223 216 211 208 206 209
244 205 149 139 152 163 172 206 206 161 146 267 240 216 202 193 208 209 51 52 72 303 325 80 118 178 329 13 355 334 21 37 29 33 33 30 32 37 39 48 82 155 201 214 220 217 213 214 216 219 219 219 222 221 217 216 217 216 217 223 226 227 225 223 224 221 217 216 218 221 223 224 224 222 222 222 225 228 227 226 225 221 215 211 208 209
193 163 153 154 152 157 178 212 210 161 132 225 240 197 173 174 189 177 110 102 185 231 330 3 104 119 347 341 332 337 22 31 28 30 31 35 34 38 45 50 61 74 104 152 200 217 220 221 223 227 226 227 229 226 221 217 214 214 221 230 232 235 235 231 232 231 224 219 219 220 223 226 227 227 225 223 225 228 229 227 225 226 224 220 214 211
171 162 174 169 153 161 196 205 185 155 147 239 234 177 165 174 174 152 115 123 120 85 313 311 49 91 315 298 333 1 34 26 23 27 27 35 35 36 42 47 55 64 76 89 109 169 215 226 232 236 236 240 240 236 231 222 215 217 227 233 238 245 246 242 239 238 235 229 226 225 226 227 228 229 228 227 228 228 227 226 225 230 231 226 219 215
229 184 183 154 150 197 219 206 160 157 191 235 193 122 94 81 98 104 110 119 61 74 225 265 28 105 267 311 344 7 34 16 17 27 27 33 37 37 38 40 46 53 61 69 75 89 143 218 229 236 240 242 248 292 316 241 218 224 234 237 240 246 251 251 248 245 243 239 236 235 233 232 232 232 229 229 231 231 228 227 228 233 236 230 221 216
294 250 191 156 192 214 216 198 162 177 192 143 115 89 59 42 39 50 67 97 88 314 246 257 46 100 161 314 353 10 17 14 26 36 35 36 37 37 37 38 39 41 43 49 57 57 49 86 217 235 245 243 244 275 319 278 228 233 240 239 238 240 246 251 253 252 249 245 242 242 241 241 242 243 240 237 234 233 232 233 234 235 236 231 220 212
331 308 231 217 224 216 171 138 168 186 172 103 110 104 87 14 14 26 358 53 111 241 259 251 66 80 116 257 41 72 56 47 49 46 41 41 40 38 38 38 37 36 36 38 42 35 28 33 16 303 290 273 262 264 265 249 241 243 245 245 242 242 244 247 254 256 255 251 244 243 249 250 249 250 248 245 242 238 236 238 239 237 233 225 215 210
321 246 266 261 235 206 140 104 110 128 88 89 104 95 96 5 17 1 298 63 166 240 239 188 85 65 71 229 112 93 76 65 64 59 52 48 44 41 39 38 37 37 36 34 33 28 23 22 14 4 357 350 332 299 267 249 246 247 253 252 244 246 251 253 259 260 258 255 246 247 261 259 252 252 247 245 245 242 239 238 238 237 229 220 214 210
313 294 307 315 250 197 154 138 134 143 134 136 135 119 124 119 102 220 267 146 215 256 228 200 104 93 209 167 118 112 98 84 75 65 59 53 47 43 40 38 36 36 35 33 31 30 26 22 16 7 359 359 3 344 302 275 261 260 267 262 249 252 262 262 263 258 252 253 252 255 262 254 249 251 246 242 242 243 244 242 239 237 229 218 214 212
166 303 263 203 235 184 163 166 159 153 149 164 158 126 135 151 140 191 210 168 201 226 305 321 72 128 196 218 101 110 97 85 78 68 60 53 45 42 39 33 29 28 28 26 26 28 28 26 25 19 9 4 12 6 322 298 286 279 280 273 259 260 271 269 263 256 253 262 265 261 259 252 245 245 243 244 246 246 249 249 244 238 227 213 208 211
146 234 253 248 250 172 166 187 146 123 116 241 143 103 131 183 146 131 175 174 176 143 7 357 68 93 135 44 24 84 87 79 76 69 59 51 41 39 36 27 21 18 17 14 13 16 18 20 23 24 26 25 26 23 337 305 300 294 287 280 269 267 275 274 263 257 263 282 280 265 260 253 244 238 238 242 245 245 244 245 244 236 224 211 206 211
125 244 278 309 287 220 172 177 153 141 163 217 126 143 199 171 123 114 173 169 110 117 21 343 113 117 113 58 349 72 88 80 77 69 60 52 43 39 35 26 17 12 10 7 5 4 2 2 6 10 13 13 13 10 356 329 312 300 286 282 276 270 274 279 272 263 261 265 260 256 255 249 240 235 235 237 240 241 237 237 237 227 214 208 207 212
138 263 292 325 251 270 144 120 61 70 133 120 175 186 162 83 91 109 133 21 46 118 250 331 110 144 152 118 245 120 98 89 82 72 62 51 43 41 35 25 16 11 9 5 5 5 2 359 358 359 0 1 2 0 357 349 334 309 284 278 276 270 268 270 271 272 270 257 246 246 248 242 236 234 236 236 236 236 234 233 230 217 206 204 206 207
121 14 293 296 218 296 35 73 36 347 60 122 172 160 114 120 133 110 128 114 105 137 127 353 10 117 113 266 188 128 107 103 93 77 63 49 40 37 30 21 14 13 13 11 10 10 10 9 6 1 357 355 357 358 356 351 336 312 290 279 274 275 270 261 261 267 272 265 250 245 243 237 234 235 236 236 233 231 232 229 224 216 209 207 207 202
101 105 284 312 333 350 26 52 157 302 358 68 73 25 65 138 156 162 148 142 152 162 138 62 344 288 205 245 139 116 112 108 96 82 69 53 44 38 28 19 13 14 17 14 13 13 12 14 13 7 2 358 358 359 356 349 337 323 309 292 283 285 282 270 262 261 266 270 262 251 243 236 235 237 238 236 231 229 230 226 221 217 212 209 208 205
72 89 274 316 333 28 38 358 221 209 226 80 56 21 5 30 111 137 86 81 127 148 146 126 184 257 275 256 114 105 101 100 97 91 77 59 48 41 31 23 18 18 21 17 13 14 14 15 15 12 9 4 1 360 356 352 345 331 315 304 301 300 294 283 273 264 265 267 263 254 247 243 240 239 240 239 233 228 226 223 219 215 211 209 209 210
113 106 119 345 0 60 65 329 321 120 128 126 102 103 147 139 120 117 106 323 80 121 155 144 162 233 339 47 99 90 85 97 102 97 83 65 54 47 33 28 27 26 26 20 14 14 13 13 13 12 12 8 4 2 359 359 355 342 323 312 309 305 296 290 285 277 270 268 266 263 260 255 248 245 245 242 235 228 221 217 213 210 210 209 209 211
137 103 93 69 35 110 179 312 1 72 93 90 79 99 127 120 110 119 175 218 75 83 129 106 117 168 35 50 81 84 88 98 95 88 81 66 55 51 37 31 34 34 32 26 21 20 18 15 13 12 12 13 13 10 7 7 4 356 343 330 323 317 305 294 289 284 279 279 280 274 268 261 252 250 250 246 240 231 219 213 209 209 211 210 207 207
95 86 90 75 342 308 293 319 8 35 63 68 42 29 48 56 104 136 168 169 112 110 106 79 90 176 86 70 81 90 94 93 85 80 80 69 54 48 39 33 35 38 39 35 29 26 25 23 21 20 19 17 16 14 11 12 10 3 354 343 338 334 327 313 299 284 272 279 288 281 270 262 253 250 250 246 242 234 221 213 211 212 212 206 201 201
99 88 100 99 46 347 338 337 356 9 31 62 21 346 1 34 65 105 118 82 87 151 130 114 142 175 116 93 83 88 89 86 83 81 76 66 50 42 37 34 36 39 41 40 36 30 27 26 25 25 23 19 16 14 12 13 13 11 6 358 350 343 337 331 318 296 278 280 289 286 278 274 265 257 252 248 246 240 227 217 214 214 209 202 201 201
115 106 122 126 149 176 184 234 248 318 30 48 18 358 5 21 36 82 108 75 90 155 80 101 151 133 109 94 77 76 79 81 82 78 69 56 45 40 37 36 38 39 39 40 39 35 31 28 27 26 24 20 17 15 14 13 13 13 12 9 4 354 345 339 330 316 298 291 291 287 286 286 281 275 267 257 251 248 237 225 218 214 207 204 207 205
107 72 80 119 143 178 180 196 212 142 87 70 17 11 10 2 20 79 98 81 148 136 44 72 143 124 107 93 79 72 70 75 76 73 66 51 42 37 34 38 43 39 36 38 39 37 34 30 28 26 24 21 19 18 17 17 16 13 12 10 8 3 356 348 341 333 318 306 299 292 287 284 281 280 275 263 254 249 241 231 223 215 207 206 210 210
104 50 19 76 81 97 118 106 87 85 87 93 73 34 26 30 44 69 83 104 142 126 86 135 124 112 102 90 85 79 72 71 70 70 67 53 41 36 36 43 45 38 35 38 39 37 35 31 29 26 23 20 19 17 17 18 18 16 14 11 9 5 1 356 349 344 335 320 307 300 297 292 282 273 267 262 256 250 242 232 222 213 208 209 212 217
110 46 12 81 75 65 81 90 88 87 84 76 71 57 43 49 59 67 69 90 119 121 145 128 106 94 91 84 81 81 75 71 67 65 66 58 45 41 43 44 39 32 33 37 37 36 35 32 30 27 24 21 18 16 15 15 16 15 14 12 9 6 3 359 353 347 341 331 315 306 302 297 291 279 268 260 253 248 244 234 219 210 210 213 215 221
96 53 50 95 86 61 58 83 92 92 87 68 58 59 63 65 67 70 71 77 82 79 93 104 96 86 80 77 82 85 81 76 68 59 55 51 44 42 43 40 35 33 34 35 36 37 37 35 33 31 28 23 19 16 13 14 14 13 11 10 8 7 5 1 356 350 344 337 327 315 301 291 289 285 276 269 257 245 240 234 220 210 212 216 219 222
73 119 131 90 85 45 37 80 91 91 89 72 48 42 61 68 62 59 65 74 81 83 87 93 93 87 74 79 84 85 80 73 64 53 46 42 42 44 43 40 38 37 36 37 38 38 38 38 36 35 33 30 25 20 16 14 14 12 11 11 8 8 7 4 1 357 349 342 335 326 311 292 280 274 270 271 264 248 238 230 218 210 211 214 218 219
74 123 124 71 84 37 26 95 103 101 94 78 50 33 42 59 60 50 39 38 83 120 118 103 99 109 110 99 89 79 73 69 59 52 50 46 44 47 46 43 41 39 38 38 39 38 37 37 37 36 37 36 32 27 22 18 16 13 13 14 12 10 8 6 7 5 359 352 343 336 325 301 281 272 264 260 260 249 234 220 209 207 211 214 214 214
95 119 113 92 99 121 206 177 99 97 91 72 45 40 64 93 92 70 40 26 39 112 134 122 122 129 128 117 101 82 72 69 60 56 57 52 49 51 51 49 45 42 42 39 37 37 36 36 37 37 39 39 38 35 30 25 22 20 18 16 12 10 7 7 9 10 8 4 357 349 339 317 291 278 265 254 252 244 227 212 205 206 211 212 210 210
86 110 123 109 105 147 214 291 14 64 92 55 337 342 129 119 98 82 55 35 42 62 85 95 108 117 119 116 109 100 88 78 72 70 69 64 58 54 53 54 52 49 48 43 39 39 37 37 38 39 40 40 38 37 34 30 27 26 24 19 14 11 9 8 10 10 11 11 9 3 354 339 316 293 272 256 250 240 223 211 207 209 210 207 204 207
99 101 110 82 98 143 205 8 47 123 222 56 47 68 99 105 97 90 70 45 52 76 95 100 108 117 114 111 110 105 97 89 81 76 73 70 66 62 59 58 56 54 52 48 44 42 38 37 36 36 38 39 37 35 33 31 29 27 26 24 22 18 14 13 15 14 13 14 15 12 6 355 339 317 286 261 250 240 223 212 208 211 210 203 201 205
117 113 104 68 75 122 70 26 100 150 123 108 92 79 95 96 91 88 68 39 36 63 104 108 111 118 117 115 114 108 102 95 82 72 72 73 70 67 64 61 60 59 57 54 51 47 43 40 37 35 35 36 36 35 34 33 32 30 29 29 28 25 21 19 21 20 19 19 19 18 15 6 351 330 296 261 244 233 221 213 209 209 207 202 200 204
111 123 111 67 43 114 101 67 89 110 147 153 131 53 70 47 10 78 89 64 28 48 119 125 121 126 127 126 126 121 108 93 77 63 69 78 77 72 69 67 67 66 64 63 59 55 51 47 43 39 37 36 35 35 33 33 33 33 32 31 31 30 27 25 25 25 23 22 21 21 21 17 8 346 304 261 226 207 211 213 212 209 204 201 200 203
75 116 136 114 69 103 108 103 110 139 211 172 127 79 38 11 334 1 108 118 26 42 130 140 137 139 143 144 146 143 119 85 68 46 67 83 87 86 81 77 77 75 71 68 64 60 57 52 47 44 40 38 38 36 34 32 31 32 32 31 30 31 30 30 29 28 26 24 21 21 24 25 24 15 343 283 204 177 189 203 209 208 204 202 202 202
50 58 98 98 95 120 115 122 157 196 233 129 118 328 353 358 349 101 95 151 63 37 130 147 148 153 159 163 165 165 125 79 115 61 79 89 95 97 93 88 85 80 74 71 66 62 59 53 50 48 44 41 39 36 34 32 31 32 32 30 29 29 29 29 29 29 29 27 22 20 23 28 32 31 24 10 139 145 151 173 192 201 203 203 202 198
28 20 57 87 112 126 110 107 148 195 252 47 14 313 333 352 145 154 298 189 131 51 126 151 158 165 170 173 172 157 42 133 150 122 100 100 100 102 100 93 88 83 78 75 70 66 62 57 53 50 45 39 35 33 32 31 31 32 31 30 30 29 28 27 26 28 31 31 27 23 23 30 37 39 39 40 47 73 97 126 160 181 192 196 194 191
19 14 55 103 111 101 98 107 109 231 213 42 337 324 340 25 148 181 231 167 138 99 123 147 159 171 180 187 177 114 104 128 132 123 118 117 111 108 104 97 92 87 82 79 75 70 67 62 57 51 42 36 33 32 30 29 29 30 29 28 30 30 28 26 26 28 30 33 34 31 26 29 37 43 46 48 53 59 59 71 112 145 162 170 176 180
29 19 28 86 102 98 99 92 73 157 137 358 342 346 23 66 202 185 130 135 134 125 131 146 157 167 176 168 141 124 119 124 128 130 130 124 114 107 102 97 92 87 81 78 73 68 63 59 55 48 40 34 33 32 29 27 27 27 25 26 27 27 25 25 27 30 31 33 37 38 34 31 34 44 51 52 57 65 67 62 73 103 125 137 148 161
104 96 73 95 106 92 77 71 114 168 327 337 329 351 18 34 164 136 121 122 127 127 132 139 146 154 151 136 127 125 125 127 133 135 130 119 108 98 93 90 88 84 79 72 66 60 55 51 48 43 37 31 27 26 25 24 23 21 21 23 22 18 17 21 26 31 34 34 36 39 41 39 36 42 53 58 61 66 69 68 64 71 90 105 114 128
21 128 185 205 183 117 114 131 156 87 354 345 147 131 94 123 142 139 129 125 126 129 130 129 131 139 140 133 128 128 130 130 131 127 119 113 104 95 93 91 87 82 77 69 61 54 49 46 44 41 36 29 24 24 25 25 23 20 19 20 19 15 15 18 23 30 37 39 39 38 40 43 42 43 46 53 62 69 71 71 69 63 67 77 84 89
68 107 107 95 80 89 101 116 105 72 59 80 111 119 122 131 140 142 136 131 131 132 131 129 130 135 138 136 134 136 136 134 129 121 114 111 107 101 97 92 86 80 73 61 50 42 37 36 36 34 30 25 23 25 26 25 23 22 19 16 14 16 18 19 22 29 36 41 42 40 39 41 45 46 47 47 51 62 71 74 78 77 71 71 72 71
109 108 97 93 106 92 79 87 99 87 79 91 108 121 130 136 140 139 134 132 132 133 133 132 133 136 139 139 140 141 140 136 129 121 116 114 112 108 100 91 81 70 55 40 31 26 24 28 32 30 25 21 21 23 24 21 21 22 21 16 13 14 18 22 26 31 35 39 43 43 41 42 45 47 49 49 49 52 56 59 67 76 76 73 75 77
79 93 92 104 136 115 80 95 108 99 94 102 112 122 130 133 133 131 126 127 130 131 131 131 132 134 138 138 137 137 134 129 124 122 120 119 114 106 94 79 62 46 36 32 32 30 28 33 36 30 23 20 19 18 16 15 17 23 24 22 19 17 18 23 28 31 33 37 41 43 42 43 47 49 51 55 55 55 57 56 53 54 55 54 56 59
102 101 93 71 79 89 100 114 110 104 107 115 120 127 131 130 129 127 124 125 129 129 130 130 128 128 130 129 128 128 125 123 123 122 120 117 110 97 81 65 53 48 48 43 33 27 29 39 38 23 14 14 14 14 14 12 15 23 28 27 23 21 22 27 30 32 34 36 39 44 45 44 46 49 52 58 64 67 70 70 67 63 62 60 55 49
117 107 102 107 103 93 100 119 116 104 101 116 128 130 130 129 129 128 127 128 130 131 131 128 124 123 124 125 125 124 123 124 124 120 115 109 99 88 76 65 60 59 52 34 18 14 25 39 33 15 7 6 6 9 15 16 16 22 29 29 23 20 25 32 33 32 32 32 35 41 46 47 48 49 50 52 57 65 71 73 75 77 78 80 79 71
106 113 126 122 118 110 132 146 145 121 115 141 144 136 132 131 130 129 130 132 133 134 133 131 129 130 130 129 127 125 123 122 121 117 112 106 98 92 88 83 76 60 39 23 14 11 16 24 22 12 6 5 6 7 15 21 20 20 25 28 25 20 20 25 30 29 28 29 33 37 41 46 49 50 49 49 50 54 62 68 70 69 69 71 74 77
130 152 164 131 119 140 152 157 156 136 135 149 149 140 136 134 129 127 130 130 129 129 128 127 128 130 132 131 129 125 121 119 118 115 110 106 107 107 99 86 68 48 31 20 15 11 8 5 5 4 1 2 5 7 10 18 23 20 19 22 23 20 17 14 18 25 27 29 34 37 38 40 43 45 47 50 50 49 52 58 64 64 62 59 58 57
Height
1474 1477 1480 1480 1481 1480 1481 1481 1481 1483 1486 1487 1490 1491 1492 1494 1491 1486 1484 1480 1481 1485 1484 1480 1480 1478 1476 1477 1478 1479 1478 1479 1478 1477 1478 1479 1481 1482 1483 1484 1485 1487 1490 1492 1494 1495 1496 1497 1497 1498 1499 1500 1501 1501 1502 1503 1504 1504 1504 1505 1506 1506 1507 1508 1509 1509 1510 1510 1512 1514 1516 1518 1520 1522 1523 1523 1524 1525 1526 1527 1528 1528 1530 1531 1533 1535
1474 1479 1480 1478 1478 1479 1480 1481 1480 1482 1486 1487 1489 1491 1492 1495 1492 1485 1482 1481 1480 1484 1482 1480 1482 1479 1477 1482 1483 1482 1482 1483 1483 1480 1480 1480 1481 1482 1483 1485 1486 1488 1490 1491 1493 1494 1495 1497 1497 1497 1498 1498 1499 1500 1501 1502 1503 1503 1504 1504 1505 1505 1506 1507 1507 1507 1507 1508 1509 1510 1513 1515 1517 1519 1520 1520 1521 1523 1524 1525 1527 1526 1527 1529 1531 1533
1478 1479 1477 1476 1478 1479 1481 1482 1482 1484 1486 1487 1489 1491 1493 1494 1490 1485 1482 1481 1480 1482 1480 1480 1483 1479 1480 1488 1489 1488 1488 1487 1486 1484 1484 1484 1484 1485 1485 1486 1488 1490 1492 1492 1493 1494 1494 1496 1496 1496 1496 1496 1498 1500 1501 1502 1502 1502 1503 1504 1504 1504 1505 1505 1506 1506 1506 1507 1508 1510 1512 1514 1516 1517 1518 1519 1520 1521 1522 1523 1524 1525 1526 1527 1529 1531
1480 1477 1473 1475 1478 1479 1481 1483 1484 1485 1486 1488 1488 1490 1493 1492 1491 1488 1484 1481 1480 1481 1480 1480 1484 1481 1483 1491 1493 1493 1493 1489 1487 1486 1485 1485 1485 1486 1486 1486 1488 1490 1492 1492 1492 1493 1494 1494 1495 1494 1495 1496 1498 1499 1500 1499 1499 1500 1501 1502 1502 1503 1504 1505 1505 1506 1507 1507 1509 1510 1512 1514 1515 1516 1517 1518 1519 1519 1520 1521 1523 1524 1525 1526 1527 1529
1476 1472 1470 1474 1477 1478 1480 1483 1485 1486 1487 1489 1487 1488 1490 1489 1489 1488 1485 1481 1480 1482 1481 1481 1488 1487 1488 1496 1498 1496 1492 1489 1489 1487 1485 1487 1486 1486 1487 1487 1488 1489 1490 1491 1491 1492 1492 1492 1493 1494 1495 1496 1497 1498 1498 1498 1498 1499 1500 1501 1502 1502 1504 1505 1506 1507 1507 1508 1508 1509 1511 1513 1514 1515 1516 1516 1516 1517 1517 1518 1521 1524 1524 1525 1526 1528
1472 1469 1470 1473 1476 1478 1480 1482 1484 1485 1487 1489 1485 1483 1485 1486 1487 1487 1486 1484 1485 1487 1484 1484 1495 1499 1498 1501 1502 1499 1495 1493 1493 1491 1490 1490 1488 1488 1488 1488 1488 1489 1489 1491 1492 1492 1492 1491 1492 1493 1494 1495 1496 1497 1498 1500 1500 1501 1502 1502 1502 1502 1503 1504 1505 1506 1506 1506 1507 1508 1509 1510 1511 1512 1513 1513 1514 1514 1515 1516 1519 1521 1522 1523 1525 1527
1469 1467 1468 1472 1475 1477 1480 1482 1482 1483 1488 1490 1482 1477 1481 1485 1486 1487 1485 1485 1490 1492 1487 1485 1493 1501 1503 1502 1502 1502 1501 1500 1497 1496 1495 1493 1491 1491 1491 1490 1490 1491 1491 1492 1493 1493 1493 1493 1492 1492 1493 1494 1494 1496 1498 1500 1502 1503 1503 1502 1502 1502 1503 1503 1504 1504 1504 1504 1505 1506 1507 1509 1510 1510 1510 1511 1513 1514 1515 1516 1517 1519 1521 1523 1524 1525
1465 1467 1469 1470 1473 1477 1480 1481 1480 1480 1486 1487 1476 1473 1480 1483 1485 1486 1484 1486 1491 1490 1488 1486 1485 1496 1506 1506 1504 1504 1504 1505 1503 1500 1499 1497 1496 1495 1494 1494 1493 1492 1493 1493 1494 1495 1495 1495 1495 1495 1496 1498 1498 1498 1499 1499 1501 1502 1501 1501 1501 1501 1503 1504 1505 1505 1505 1504 1504 1505 1506 1508 1509 1510 1511 1511 1512 1513 1514 1515 1516 1517 1520 1522 1523 1524
1462 1466 1467 1468 1473 1476 1475 1473 1474 1477 1481 1478 1470 1472 1478 1479 1481 1482 1483 1487 1491 1492 1492 1489 1484 1498 1514 1511 1506 1507 1508 1510 1508 1505 1504 1501 1499 1498 1496 1496 1495 1495 1495 1495 1495 1496 1497 1498 1498 1499 1500 1502 1503 1502 1501 1500 1501 1502 1501 1501 1502 1502 1503 1504 1505 1506 1506 1506 1506 1505 1505 1507 1508 1510 1511 1512 1512 1512 1513 1514 1515 1516 1519 1521 1522 1523
1462 1463 1463 1466 1470 1470 1466 1465 1469 1474 1475 1470 1469 1474 1476 1478 1481 1482 1484 1486 1492 1498 1496 1489 1486 1499 1517 1517 1513 1513 1513 1514 1512 1509 1507 1505 1502 1500 1499 1498 1497 1498 1497 1497 1497 1497 1498 1498 1499 1500 1501 1502 1502 1501 1501 1501 1503 1504 1503 1503 1502 1503 1504 1505 1506 1507 1508 1508 1508 1507 1506 1506 1508 1509 1510 1511 1511 1511 1511 1512 1513 1515 1517 1519 1521 1523
1461 1461 1462 1463 1463 1462 1460 1463 1467 1468 1469 1468 1471 1475 1476 1480 1481 1484 1489 1487 1495 1504 1495 1490 1491 1494 1508 1519 1519 1516 1515 1515 1514 1512 1510 1507 1505 1503 1501 1501 1500 1500 1500 1499 1499 1498 1498 1498 1499 1500 1500 1500 1500 1500 1503 1506 1507 1506 1504 1503 1501 1502 1504 1505 1506 1508 1508 1509 1508 1507 1507 1507 1509 1510 1511 1510 1510 1510 1510 1511 1512 1514 1516 1517 1520 1522
1461 1461 1461 1458 1457 1457 1458 1463 1465 1465 1467 1469 1472 1474 1479 1485 1486 1489 1492 1491 1501 1507 1495 1494 1497 1495 1508 1520 1518 1516 1516 1514 1513 1513 1512 1509 1508 1506 1505 1504 1503 1503 1502 1501 1500 1500 1499 1499 1499 1499 1499 1499 1499 1500 1503 1506 1506 1505 1504 1503 1502 1502 1502 1503 1506 1508 1509 1509 1508 1507 1509 1509 1508 1508 1509 1509 1510 1510 1509 1510 1511 1512 1514 1515 1518 1520
1461 1460 1459 1456 1454 1454 1457 1463 1467 1467 1469 1471 1472 1475 1485 1496 1498 1499 1501 1501 1503 1501 1497 1499 1499 1504 1518 1520 1515 1516 1516 1515 1514 1514 1513 1512 1510 1509 1508 1507 1506 1505 1504 1503 1503 1502 1501 1501 1500 1500 1499 1500 1500 1500 1502 1502 1502 1503 1503 1503 1503 1502 1501 1502 1503 1506 1507 1508 1507 1508 1508 1508 1507 1506 1506 1506 1507 1507 1507 1507 1508 1510 1512 1514 1516 1518
1465 1461 1458 1456 1454 1452 1455 1462 1467 1470 1469 1469 1471 1476 1487 1500 1507 1510 1513 1513 1507 1498 1499 1500 1499 1513 1525 1519 1515 1517 1516 1516 1515 1515 1515 1514 1513 1512 1511 1510 1508 1507 1506 1506 1506 1504 1503 1503 1502 1502 1501 1501 1501 1501 1501 1500 1500 1501 1501 1502 1502 1501 1500 1500 1500 1502 1503 1503 1505 1506 1506 1505 1505 1505 1505 1504 1504 1505 1505 1505 1506 1509 1510 1512 1515 1517
1472 1469 1458 1455 1454 1450 1452 1455 1458 1462 1465 1468 1469 1472 1481 1490 1497 1505 1506 1505 1502 1499 1500 1500 1504 1518 1525 1520 1517 1516 1515 1516 1515 1516 1517 1516 1515 1513 1511 1510 1508 1508 1507 1507 1507 1506 1505 1504 1503 1503 1503 1503 1503 1502 1502 1501 1500 1500 1500 1500 1501 1500 1499 1498 1498 1498 1499 1501 1504 1505 1504 1504 1503 1503 1503 1502 1502 1503 1503 1504 1505 1507 1508 1511 1514 1517
1472 1469 1454 1450 1451 1448 1450 1451 1451 1457 1466 1471 1470 1471 1477 1477 1480 1493 1500 1498 1496 1499 1507 1512 1516 1522 1522 1520 1519 1516 1516 1516 1516 1518 1518 1517 1517 1514 1512 1511 1509 1508 1508 1507 1506 1505 1505 1504 1504 1503 1503 1503 1503 1502 1502 1501 1500 1500 1499 1498 1498 1499 1498 1497 1496 1496 1497 1499 1502 1504 1504 1503 1502 1501 1501 1501 1501 1502 1502 1503 1504 1505 1506 1509 1512 1515
1469 1465 1453 1450 1449 1446 1448 1449 1449 1453 1462 1471 1471 1470 1473 1470 1472 1486 1500 1503 1497 1498 1515 1523 1522 1524 1523 1521 1520 1519 1518 1518 1518 1520 1520 1520 1519 1517 1515 1514 1512 1511 1510 1508 1507 1505 1504 1503 1502 1501 1500 1501 1500 1500 1500 1499 1498 1498 1497 1496 1496 1497 1497 1496 1494 1495 1496 1497 1498 1500 1500 1500 1499 1499 1499 1499 1500 1500 1501 1501 1502 1503 1505 1507 1510 1513
1464 1462 1455 1452 1451 1448 1448 1448 1449 1450 1454 1465 1469 1466 1469 1473 1475 1481 1493 1504 1501 1502 1519 1526 1522 1524 1525 1523 1522 1521 1520 1520 1521 1522 1522 1522 1521 1520 1519 1517 1515 1514 1513 1512 1510 1507 1505 1503 1501 1500 1499 1499 1499 1499 1498 1497 1497 1495 1494 1494 1493 1493 1494 1493 1492 1492 1494 1495 1494 1495 1495 1495 1495 1495 1496 1497 1498 1498 1499 1499 1501 1502 1504 1506 1508 1511
1461 1463 1457 1453 1453 1451 1449 1450 1454 1454 1452 1457 1462 1461 1467 1475 1480 1483 1490 1500 1502 1508 1523 1529 1526 1526 1525 1523 1522 1521 1522 1522 1523 1524 1524 1524 1523 1522 1521 1519 1517 1516 1514 1513 1511 1509 1507 1505 1503 1501 1500 1500 1499 1498 1497 1496 1495 1494 1492 1491 1490 1490 1491 1491 1490 1490 1491 1491 1491 1491 1491 1492 1493 1492 1494 1495 1495 1496 1496 1497 1499 1501 1503 1505 1507 1509
1459 1464 1462 1456 1453 1452 1454 1458 1462 1462 1457 1456 1460 1462 1466 1471 1476 1480 1486 1491 1495 1507 1522 1529 1528 1526 1523 1522 1521 1521 1523 1523 1524 1526 1526 1526 1525 1523 1522 1521 1519 1518 1516 1515 1513 1511 1509 1507 1506 1503 1501 1500 1499 1498 1497 1495 1495 1493 1492 1490 1489 1489 1489 1489 1489 1488 1488 1489 1489 1489 1489 1490 1490 1491 1492 1493 1493 1494 1495 1496 1499 1500 1502 1504 1506 1508
1458 1465 1466 1461 1456 1458 1465 1468 1469 1467 1462 1461 1464 1468 1470 1472 1475 1478 1485 1491 1490 1497 1514 1524 1528 1527 1522 1520 1520 1521 1523 1524 1525 1527 1527 1527 1527 1525 1524 1523 1521 1520 1518 1516 1514 1512 1511 1509 1507 1505 1503 1502 1500 1499 1497 1495 1494 1492 1491 1490 1488 1488 1488 1488 1487 1487 1487 1487 1487 1488 1488 1489 1489 1489 1490 1491 1491 1492 1493 1495 1497 1499 1501 1503 1505 1507
1458 1463 1467 1468 1468 1471 1474 1472 1468 1466 1464 1466 1469 1475 1478 1477 1477 1480 1490 1497 1493 1496 1506 1513 1521 1527 1524 1521 1521 1522 1524 1525 1527 1527 1527 1528 1528 1527 1526 1524 1523 1522 1519 1518 1516 1513 1512 1510 1508 1507 1505 1503 1501 1499 1497 1496 1495 1493 1491 1490 1488 1487 1487 1486 1486 1485 1485 1486 1486 1487 1487 1487 1488 1488 1489 1490 1490 1491 1492 1494 1496 1498 1500 1502 1504 1506
1456 1461 1469 1475 1478 1479 1476 1472 1469 1466 1465 1467 1471 1478 1481 1478 1477 1479 1486 1493 1496 1503 1507 1506 1516 1527 1527 1524 1523 1524 1526 1527 1527 1527 1528 1530 1529 1528 1527 1525 1524 1523 1520 1519 1517 1515 1514 1512 1510 1508 1506 1504 1502 1500 1499 1497 1496 1494 1492 1490 1488 1487 1486 1485 1484 1484 1484 1485 1485 1485 1485 1486 1486 1486 1487 1488 1489 1490 1491 1493 1494 1496 1498 1500 1502 1504
1456 1464 1473 1479 1479 1476 1472 1470 1469 1465 1465 1470 1476 1481 1482 1481 1480 1480 1482 1486 1493 1503 1505 1503 1516 1529 1528 1526 1526 1526 1528 1528 1528 1529 1530 1531 1530 1529 1527 1526 1524 1523 1522 1520 1519 1517 1516 1514 1512 1510 1507 1505 1503 1501 1500 1498 1496 1495 1493 1491 1489 1487 1486 1485 1484 1484 1484 1484 1484 1484 1484 1484 1485 1485 1485 1486 1487 1489 1491 1492 1494 1495 1496 1498 1500 1501
1457 1467 1474 1481 1486 1484 1480 1477 1473 1471 1474 1480 1485 1487 1485 1484 1483 1482 1485 1485 1491 1504 1503 1499 1516 1529 1527 1528 1529 1527 1529 1529 1529 1531 1532 1532 1531 1529 1528 1526 1525 1524 1523 1521 1520 1518 1517 1515 1514 1512 1509 1507 1505 1503 1500 1498 1497 1495 1493 1490 1488 1487 1485 1484 1484 1483 1483 1484 1484 1483 1483 1483 1483 1483 1484 1485 1486 1489 1490 1491 1493 1494 1495 1497 1498 1499
1460 1470 1472 1476 1486 1489 1487 1485 1481 1481 1483 1487 1491 1491 1489 1487 1483 1481 1485 1484 1490 1505 1507 1505 1517 1528 1528 1529 1530 1529 1530 1531 1531 1533 1533 1532 1532 1530 1528 1527 1526 1525 1524 1522 1521 1519 1518 1517 1515 1513 1511 1509 1507 1504 1502 1499 1497 1494 1493 1491 1488 1487 1485 1484 1484 1483 1483 1483 1483 1482 1482 1482 1482 1482 1483 1484 1487 1489 1491 1492 1492 1493 1495 1497 1497 1498
1463 1475 1474 1471 1475 1479 1482 1484 1484 1484 1488 1491 1495 1495 1493 1493 1489 1484 1485 1488 1494 1504 1510 1513 1517 1523 1529 1531 1531 1531 1532 1532 1533 1533 1533 1533 1532 1530 1529 1527 1526 1525 1525 1523 1521 1520 1519 1518 1516 1514 1512 1511 1508 1506 1503 1500 1497 1495 1493 1491 1489 1487 1485 1484 1483 1482 1482 1482 1481 1481 1480 1480 1481 1481 1482 1483 1485 1487 1488 1490 1492 1493 1495 1497 1496 1497
1464 1476 1478 1476 1479 1482 1483 1486 1487 1487 1492 1497 1499 1500 1499 1497 1494 1490 1492 1499 1503 1502 1506 1515 1517 1522 1531 1533 1532 1533 1533 1533 1534 1534 1533 1533 1532 1531 1529 1527 1526 1526 1525 1523 1522 1520 1519 1518 1516 1514 1512 1510 1508 1506 1504 1501 1498 1496 1494 1492 1490 1488 1486 1484 1483 1482 1481 1480 1479 1479 1478 1479 1480 1480 1481 1482 1483 1484 1485 1487 1490 1492 1495 1496 1496 1497
1465 1477 1480 1480 1486 1489 1489 1489 1490 1492 1497 1501 1502 1503 1503 1500 1498 1500 1504 1508 1508 1503 1506 1516 1522 1526 1533 1534 1533 1535 1535 1535 1536 1534 1534 1534 1533 1532 1530 1528 1527 1526 1525 1523 1522 1521 1519 1518 1516 1514 1512 1510 1508 1505 1504 1501 1499 1497 1495 1493 1491 1489 1487 1484 1482 1481 1480 1479 1478 1477 1476 1477 1477 1478 1479 1480 1480 1481 1483 1485 1487 1489 1493 1495 1496 1497
1468 1482 1484 1482 1489 1494 1494 1494 1493 1495 1500 1503 1505 1505 1505 1505 1505 1507 1510 1510 1510 1512 1515 1520 1526 1531 1535 1535 1535 1536 1536 1536 1536 1535 1535 1534 1533 1532 1530 1529 1528 1526 1525 1524 1522 1522 1520 1519 1517 1515 1513 1511 1508 1506 1504 1502 1500 1498 1496 1493 1491 1489 1487 1485 1483 1480 1478 1477 1476 1475 1474 1474 1474 1475 1477 1477 1478 1479 1480 1483 1485 1487 1490 1493 1495 1497
1469 1484 1487 1484 1492 1500 1499 1498 1497 1497 1502 1507 1511 1510 1507 1508 1510 1512 1513 1512 1513 1520 1524 1524 1529 1535 1536 1536 1537 1537 1537 1537 1536 1536 1536 1536 1535 1534 1532 1531 1529 1527 1526 1525 1524 1524 1522 1521 1519 1517 1514 1512 1510 1508 1506 1504 1502 1500 1498 1496 1493 1491 1489 1487 1485 1482 1478 1476 1474 1473 1472 1471 1471 1472 1473 1474 1476 1476 1477 1480 1482 1484 1487 1490 1494 1496
1469 1483 1488 1487 1496 1505 1504 1501 1500 1498 1500 1507 1515 1516 1513 1512 1514 1516 1516 1515 1515 1521 1524 1524 1529 1535 1537 1537 1538 1538 1538 1537 1538 1538 1538 1537 1537 1536 1534 1532 1531 1530 1529 1527 1526 1526 1524 1523 1521 1519 1517 1515 1513 1511 1508 1506 1504 1502 1500 1498 1495 1494 1492 1489 1487 1483 1480 1476 1473 1471 1469 1468 1467 1469 1470 1471 1472 1473 1475 1477 1479 1481 1484 1488 1492 1494
1472 1481 1487 1488 1496 1506 1504 1501 1500 1495 1495 1505 1516 1519 1518 1517 1517 1517 1519 1518 1518 1520 1521 1522 1527 1534 1537 1537 1538 1539 1539 1539 1540 1540 1540 1540 1539 1537 1536 1534 1533 1532 1530 1529 1529 1528 1527 1526 1524 1522 1520 1517 1515 1513 1511 1509 1507 1504 1502 1500 1498 1496 1494 1491 1488 1485 1482 1478 1474 1470 1468 1465 1465 1465 1467 1468 1469 1470 1472 1475 1477 1479 1482 1485 1489 1492
1475 1479 1486 1489 1496 1504 1505 1501 1499 1496 1500 1512 1518 1517 1517 1518 1517 1519 1523 1524 1523 1522 1523 1525 1530 1534 1537 1537 1538 1540 1541 1541 1542 1541 1541 1541 1540 1538 1537 1535 1534 1533 1532 1531 1531 1530 1529 1528 1526 1524 1522 1520 1518 1516 1514 1512 1510 1508 1506 1503 1501 1498 1495 1493 1489 1486 1483 1479 1475 1471 1467 1465 1463 1463 1464 1465 1466 1468 1470 1473 1475 1477 1479 1483 1486 1489
1476 1480 1486 1492 1497 1503 1505 1501 1499 1503 1512 1519 1519 1517 1517 1518 1518 1520 1525 1527 1526 1527 1528 1530 1533 1535 1537 1539 1539 1540 1541 1542 1543 1543 1542 1542 1541 1539 1538 1536 1536 1535 1534 1533 1532 1531 1531 1529 1528 1526 1524 1522 1520 1518 1516 1514 1512 1510 1508 1506 1503 1500 1497 1494 1491 1488 1485 1481 1477 1473 1468 1465 1463 1462 1462 1462 1464 1466 1468 1471 1473 1475 1478 1481 1484 1487
1474 1479 1487 1496 1501 1503 1506 1505 1505 1512 1520 1521 1520 1519 1519 1519 1519 1520 1526 1529 1529 1530 1531 1532 1535 1537 1538 1540 1540 1541 1542 1543 1543 1543 1543 1543 1542 1541 1539 1538 1537 1536 1536 1535 1534 1533 1532 1531 1530 1528 1526 1525 1523 1520 1518 1517 1515 1513 1511 1508 1505 1502 1499 1496 1493 1490 1487 1484 1480 1476 1471 1467 1464 1462 1461 1461 1462 1465 1468 1469 1470 1473 1475 1479 1482 1485
1474 1478 1484 1496 1505 1507 1511 1514 1516 1520 1522 1521 1521 1521 1520 1521 1521 1520 1525 1532 1532 1531 1532 1534 1537 1538 1539 1540 1541 1542 1543 1543 1544 1545 1545 1544 1543 1542 1541 1540 1539 1538 1538 1537 1536 1535 1534 1533 1532 1531 1529 1527 1525 1523 1521 1519 1517 1515 1513 1510 1507 1504 1502 1499 1495 1493 1490 1487 1483 1480 1476 1471 1467 1464 1462 1461 1461 1463 1466 1466 1467 1470 1474 1476 1479 1482
1474 1476 1479 1490 1505 1510 1512 1518 1522 1522 1520 1520 1521 1522 1520 1521 1521 1520 1524 1531 1533 1532 1533 1535 1537 1539 1540 1541 1542 1542 1542 1543 1546 1548 1547 1546 1545 1544 1543 1542 1541 1540 1539 1538 1537 1536 1536 1535 1534 1533 1531 1529 1527 1525 1524 1522 1520 1517 1515 1512 1510 1507 1504 1501 1498 1495 1493 1490 1487 1484 1481 1476 1472 1467 1465 1462 1461 1461 1463 1464 1465 1468 1472 1474 1477 1480
1478 1481 1481 1489 1504 1509 1509 1515 1520 1519 1519 1520 1522 1522 1521 1521 1521 1521 1523 1529 1533 1533 1533 1535 1537 1538 1539 1540 1541 1541 1542 1544 1548 1549 1548 1547 1546 1545 1545 1544 1543 1542 1541 1540 1539 1538 1538 1537 1536 1535 1533 1531 1529 1528 1526 1524 1522 1519 1516 1514 1512 1510 1507 1504 1502 1499 1496 1494 1491 1488 1485 1481 1478 1473 1469 1466 1464 1463 1464 1465 1465 1467 1470 1473 1475 1478
1482 1485 1487 1493 1503 1508 1510 1516 1520 1519 1521 1522 1522 1522 1521 1520 1522 1523 1522 1526 1532 1534 1533 1534 1536 1538 1539 1540 1541 1541 1542 1544 1548 1549 1548 1548 1547 1546 1546 1545 1544 1544 1543 1542 1541 1540 1539 1539 1537 1536 1535 1533 1532 1530 1528 1526 1524 1521 1519 1517 1515 1512 1509 1507 1505 1503 1500 1498 1495 1492 1489 1486 1483 1480 1475 1472 1469 1468 1469 1470 1467 1467 1468 1471 1474 1476
1493 1494 1496 1500 1506 1510 1514 1520 1523 1523 1523 1522 1522 1522 1521 1520 1523 1523 1523 1526 1532 1534 1534 1535 1536 1537 1539 1540 1541 1542 1543 1544 1546 1548 1548 1548 1548 1547 1547 1546 1546 1545 1544 1544 1543 1542 1541 1540 1539 1537 1536 1535 1534 1532 1530 1528 1526 1524 1522 1519 1516 1514 1512 1511 1509 1506 1504 1501 1498 1495 1492 1490 1488 1485 1482 1479 1475 1473 1476 1478 1474 1470 1469 1471 1474 1475
1500 1502 1503 1505 1510 1516 1520 1523 1523 1522 1522 1522 1522 1522 1521 1521 1523 1524 1526 1529 1532 1533 1534 1536 1536 1538 1539 1540 1541 1543 1544 1545 1547 1548 1548 1548 1548 1548 1548 1547 1547 1547 1546 1546 1545 1544 1543 1541 1540 1539 1538 1537 1536 1534 1532 1530 1528 1527 1524 1522 1519 1517 1516 1514 1511 1509 1507 1504 1501 1498 1495 1493 1491 1489 1488 1486 1482 1479 1481 1486 1484 1479 1475 1475 1476 1476
1504 1505 1508 1511 1515 1517 1521 1521 1516 1516 1521 1523 1522 1522 1522 1522 1524 1526 1529 1531 1532 1532 1534 1536 1537 1538 1539 1541 1542 1544 1545 1547 1548 1549 1549 1550 1550 1549 1549 1549 1548 1548 1548 1547 1547 1546 1544 1543 1542 1540 1539 1538 1537 1536 1534 1532 1531 1529 1527 1524 1522 1520 1518 1516 1514 1512 1509 1507 1504 1501 1499 1496 1494 1492 1491 1490 1488 1486 1486 1489 1490 1489 1486 1483 1482 1481
1507 1507 1509 1515 1517 1516 1518 1520 1518 1519 1523 1523 1521 1522 1524 1524 1526 1527 1529 1530 1532 1533 1534 1535 1538 1539 1540 1541 1543 1545 1547 1548 1549 1550 1550 1550 1551 1550 1550 1550 1549 1549 1549 1548 1548 1547 1546 1544 1543 1542 1541 1540 1539 1537 1536 1534 1532 1531 1528 1526 1524 1522 1520 1518 1516 1514 1512 1509 1507 1505 1503 1500 1498 1496 1494 1493 1492 1492 1491 1491 1491 1493 1494 1493 1491 1489
1509 1508 1507 1513 1518 1518 1519 1523 1524 1524 1524 1522 1522 1524 1525 1526 1528 1529 1529 1531 1532 1534 1535 1536 1538 1540 1541 1543 1544 1546 1548 1549 1550 1551 1551 1551 1551 1551 1551 1551 1551 1550 1550 1549 1549 1548 1547 1545 1544 1543 1542 1541 1540 1539 1537 1536 1534 1532 1530 1528 1526 1524 1522 1520 1518 1516 1514 1512 1510 1508 1506 1504 1502 1500 1498 1497 1496 1495 1495 1494 1494 1495 1497 1498 1497 1495
1510 1509 1509 1513 1518 1520 1521 1525 1526 1525 1525 1525 1525 1526 1526 1527 1529 1530 1531 1532 1533 1535 1536 1538 1539 1541 1543 1545 1546 1547 1548 1549 1550 1551 1551 1552 1552 1552 1552 1552 1552 1551 1551 1550 1549 1549 1548 1546 1545 1544 1543 1542 1540 1539 1538 1537 1535 1533 1532 1530 1528 1526 1524 1522 1520 1519 1516 1514 1512 1511 1509 1508 1506 1504 1503 1501 1500 1499 1498 1498 1497 1497 1499 1500 1500 1499
1510 1509 1510 1514 1517 1519 1524 1528 1527 1526 1528 1528 1527 1528 1529 1530 1531 1532 1533 1534 1535 1537 1539 1540 1541 1543 1545 1546 1547 1548 1549 1550 1551 1551 1552 1553 1553 1553 1553 1553 1553 1552 1552 1551 1550 1549 1548 1547 1546 1545 1544 1542 1541 1540 1539 1538 1537 1535 1533 1531 1529 1527 1526 1524 1522 1521 1519 1517 1516 1514 1512 1511 1509 1508 1506 1505 1504 1503 1502 1501 1501 1500 1501 1502 1502 1501
1511 1511 1513 1516 1519 1521 1525 1528 1528 1528 1530 1530 1530 1531 1531 1532 1533 1535 1535 1536 1537 1539 1541 1542 1544 1545 1546 1548 1549 1549 1550 1551 1552 1553 1553 1554 1554 1554 1554 1554 1554 1553 1553 1552 1551 1550 1549 1548 1547 1546 1544 1543 1542 1540 1539 1538 1538 1536 1534 1533 1531 1529 1527 1526 1524 1523 1522 1520 1519 1517 1515 1514 1513 1511 1510 1509 1507 1507 1506 1505 1505 1505 1504 1504 1504 1504
1510 1512 1515 1517 1521 1525 1527 1529 1529 1530 1532 1533 1533 1533 1533 1534 1535 1536 1537 1539 1540 1541 1543 1544 1546 1547 1548 1550 1551 1551 1552 1553 1553 1554 1555 1555 1555 1555 1555 1555 1555 1554 1554 1553 1552 1550 1549 1549 1548 1546 1545 1543 1542 1541 1540 1539 1538 1537 1535 1534 1532 1531 1529 1528 1526 1525 1524 1523 1521 1520 1519 1518 1516 1515 1513 1512 1511 1510 1509 1509 1508 1508 1508 1507 1507 1506
1511 1515 1516 1517 1522 1526 1527 1528 1528 1529 1531 1533 1534 1534 1536 1537 1537 1538 1539 1541 1542 1543 1545 1546 1547 1548 1550 1551 1552 1553 1553 1554 1554 1555 1556 1556 1556 1556 1556 1556 1555 1555 1554 1553 1552 1551 1550 1549 1548 1547 1545 1544 1543 1542 1541 1540 1539 1538 1537 1535 1534 1532 1531 1530 1528 1527 1526 1525 1523 1522 1521 1520 1519 1518 1517 1515 1514 1513 1512 1511 1511 1510 1510 1509 1509 1508
1511 1515 1516 1516 1519 1523 1525 1527 1528 1528 1529 1533 1534 1535 1537 1539 1539 1540 1542 1543 1544 1546 1546 1547 1548 1549 1550 1552 1553 1554 1554 1555 1555 1556 1556 1557 1557 1557 1556 1556 1556 1555 1555 1554 1553 1552 1550 1549 1548 1547 1546 1544 1543 1542 1541 1540 1539 1539 1538 1536 1535 1534 1533 1531 1530 1529 1528 1526 1525 1524 1523 1523 1522 1521 1520 1518 1517 1516 1515 1515 1514 1513 1512 1512 1511 1511